This demonstration page uses our WeatherBlox Daily Observations layout. Learn more.

40.92945, -100.16068

Hourly Observations for September 20, 2019

Temp ( °F °C ) Dew Point ( °F °C ) Humidity (%) Winds ( mph kmh ) Pressure ( in mb ) Visibility ( mi km ) Precip ( " mm )
12:15 am 00:15 Clear 74 23.4 66 18.7 75 75 SSE 10 17 29.83 1010 7 11.265408 0 0
12:35 am 00:35 Clear 73 23 66 18.7 77 77 SSE 10 17 29.83 1010 7 11.265408 0 0
12:55 am 00:55 Clear 73 22.9 66 18.8 78 78 SSE 12 19 29.83 1010 7 11.265408 0 0
1:15 am 01:15 Clear 73 22.6 66 18.8 79 79 S 10 17 29.85 1011 7 11.265408 0 0
1:35 am 01:35 Clear 73 22.5 66 18.8 80 80 SSE 12 19 29.85 1011 7 11.265408 0 0
1:55 am 01:55 Clear 73 22.5 66 19 81 81 SSE 13 20 29.8 1009 7 11.265408 0 0
2:15 am 02:15 Clear 72 22.2 66 18.9 82 82 SE 10 17 29.83 1010 7 11.265408 0 0
2:35 am 02:35 Clear 72 22.1 66 18.9 82 82 SSE 15 24 29.83 1010 7 11.265408 0 0
2:55 am 02:55 Clear 71 21.9 66 18.8 83 83 SSE 13 20 29.83 1010 7 11.265408 0 0
3:15 am 03:15 Clear 71 21.7 66 19 85 85 SSE 13 20 29.83 1010 7 11.265408 0 0
3:35 am 03:35 Clear 71 21.6 66 19 85 85 SSE 9 15 29.85 1011 7 11.265408 0 0
3:55 am 03:55 Clear 70 21.2 66 18.8 86 86 SSE 8 13 29.85 1011 10 16.09344 0 0
4:15 am 04:15 Clear 69 20.5 66 18.7 89 89 SSE 8 13 29.85 1011 10 16.09344 0 0
4:35 am 04:35 Clear 69 20.3 65 18.6 90 90 SSE 8 13 29.83 1010 10 16.09344 0 0
4:55 am 04:55 Clear 68 20.1 65 18.6 91 91 SSE 8 13 29.83 1010 10 16.09344 0 0
5:15 am 05:15 Clear 69 20.3 65 18.6 90 90 SE 9 15 29.83 1010 10 16.09344 0 0
5:35 am 05:35 Clear 68 20.1 65 18.6 91 91 SE 9 15 29.83 1010 10 16.09344 0 0
5:55 am 05:55 Clear 68 20 66 18.7 92 92 SE 10 17 29.83 1010 10 16.09344 0 0
6:15 am 06:15 Clear 67 19.5 65 18.6 95 95 SSE 9 15 29.85 1011 10 16.09344 0 0
6:35 am 06:35 Clear 67 19.3 65 18.5 95 95 SSE 9 15 29.85 1011 10 16.09344 0 0
6:55 am 06:55 Clear 67 19.3 65 18.5 95 95 SSE 10 17 29.85 1011 10 16.09344 0 0
7:15 am 07:15 Clear 67 19.5 65 18.6 95 95 SSE 13 20 29.85 1011 10 16.09344 0 0
7:35 am 07:35 Sunny 67 19.6 66 18.7 95 95 SSE 13 20 29.85 1011 10 16.09344 0 0
7:55 am 07:55 Sunny 68 20.1 66 19 93 93 SSE 13 20 29.85 1011 10 16.09344 0 0
8:15 am 08:15 Sunny 68 20.1 66 19 93 93 SSE 14 22 29.85 1011 10 16.09344 0 0
8:35 am 08:35 Sunny 69 20.5 66 19.1 92 92 SSE 12 19 29.85 1011 10 16.09344 0 0
8:55 am 08:55 Sunny 70 21.1 66 19.1 88 88 SE 13 20 29.83 1010 10 16.09344 0 0
9:15 am 09:15 Sunny 71 21.6 66 19 85 85 SSE 15 24 29.83 1010 10 16.09344 0 0
9:35 am 09:35 Sunny 71 21.7 66 19.1 85 85 SE 16 26 29.83 1010 10 16.09344 0 0
9:55 am 09:55 Sunny 72 22.4 67 19.2 82 82 SSE 14 22 29.83 1010 10 16.09344 0 0
10:15 am 10:15 Sunny 73 22.5 66 19.1 81 81 SSE 17 28 29.8 1009 10 16.09344 0 0
10:35 am 10:35 Partly Cloudy 75 24 67 19.3 75 75 S 18 30 29.8 1009 10 16.09344 0 0
10:55 am 10:55 Partly Cloudy 76 24.5 65 18.1 68 68 SSE 21 33 29.8 1009 10 16.09344 0 0
11:15 am 11:15 Sunny 78 25.5 64 18 63 63 SSE 23 37 29.8 1009 7 11.265408 0 0
11:35 am 11:35 Partly Cloudy 77 25.2 64 17.8 64 64 S 25 41 29.8 1009 7 11.265408 0 0
11:55 am 11:55 Partly Cloudy 80 26.4 65 18.6 62 62 SSE 24 39 29.77 1008 10 16.09344 0 0
12:15 pm 12:15 Mostly Cloudy 78 25.8 65 18.6 65 65 SSE 22 35 29.8 1009 10 16.09344 0 0
12:35 pm 12:35 Mostly Cloudy 80 26.5 64 18 60 60 S 15 24 29.74 1007 10 16.09344 0 0
12:55 pm 12:55 Partly Cloudy 82 27.6 64 17.5 54 54 SSE 21 33 29.74 1007 10 16.09344 0 0
1:15 pm 13:15 Partly Cloudy 82 27.5 65 18.1 57 57 SSE 17 28 29.74 1007 10 16.09344 0 0
1:35 pm 13:35 Mostly Cloudy 80 26.6 65 18.6 62 62 SSE 16 26 29.74 1007 10 16.09344 0 0
1:55 pm 13:55 Mostly Cloudy 81 27.4 65 18.1 57 57 S 23 37 29.74 1007 10 16.09344 0 0
2:15 pm 14:15 Mostly Cloudy 82 27.9 64 17.6 54 54 SSE 25 41 29.71 1006 10 16.09344 0 0
2:35 pm 14:35 Partly Cloudy 84 28.8 64 17.5 50 50 S 23 37 29.71 1006 10 16.09344 0 0
2:55 pm 14:55 Partly Cloudy 83 28.5 64 17.5 51 51 SSE 28 44 29.71 1006 10 16.09344 0 0
3:15 pm 15:15 Mostly Cloudy 84 29 64 17.6 50 50 SSE 21 33 29.65 1004 10 16.09344 0 0
3:35 pm 15:35 Partly Cloudy 82 28 63 17.1 52 52 SE 21 33 29.68 1005 10 16.09344 0 0
3:55 pm 15:55 Sunny 83 28.3 62 16.9 50 50 SSE 21 33 29.68 1005 10 16.09344 0 0
4:15 pm 16:15 Sunny 85 29.5 63 17.2 48 48 SSE 23 37 29.62 1003 10 16.09344 0 0
4:35 pm 16:35 Sunny 84 29.1 64 17.8 51 51 SSE 23 37 29.62 1003 10 16.09344 0 0
4:55 pm 16:55 Sunny 85 29.2 64 17.6 50 50 SSE 22 35 29.62 1003 10 16.09344 0 0
5:15 pm 17:15 Sunny 84 28.7 64 17.9 52 52 SSE 20 31 29.62 1003 10 16.09344 0 0
5:35 pm 17:35 Sunny 84 28.7 64 18 52 52 SSE 24 39 29.59 1002 10 16.09344 0 0
5:55 pm 17:55 Sunny 82 28 64 17.8 54 54 SSE 22 35 29.62 1003 10 16.09344 0 0
6:15 pm 18:15 Partly Cloudy 82 27.9 64 17.8 54 54 SSE 22 35 29.65 1004 10 16.09344 0 0
6:35 pm 18:35 Partly Cloudy 81 27.1 65 18.1 58 58 SSE 20 31 29.65 1004 10 16.09344 0 0
6:55 pm 18:55 Sunny 80 26.5 64 18 60 60 SSE 23 37 29.65 1004 10 16.09344 0 0
7:15 pm 19:15 Sunny 78 25.7 65 18.3 64 64 SE 18 30 29.65 1004 10 16.09344 0 0
7:35 pm 19:35 Sunny 77 24.9 66 18.7 69 69 SE 17 28 29.65 1004 10 16.09344 0 0
7:55 pm 19:55 Clear 76 24.2 66 18.7 71 71 SSE 14 22 29.68 1005 10 16.09344 0 0
8:15 pm 20:15 Clear 75 23.9 66 18.7 73 73 SSE 20 31 29.68 1005 10 16.09344 0 0
8:35 pm 20:35 Clear 74 23.5 66 18.8 75 75 SSE 21 33 29.68 1005 10 16.09344 0 0
8:55 pm 20:55 Clear 73 23 66 18.9 78 78 SSE 22 35 29.68 1005 10 16.09344 0 0
9:15 pm 21:15 Clear 73 22.5 66 19 81 81 SSE 18 30 29.68 1005 10 16.09344 0 0
9:35 pm 21:35 Clear 72 22.1 66 19.1 83 83 SSE 21 33 29.68 1005 10 16.09344 0 0
9:55 pm 21:55 Clear 72 22 67 19.3 85 85 SE 16 26 29.68 1005 10 16.09344 0 0
10:15 pm 22:15 Clear 71 21.7 67 19.5 87 87 SE 21 33 29.68 1005 10 16.09344 0 0
10:35 pm 22:35 Partly Cloudy 71 21.5 67 19.5 88 88 SSE 18 30 29.68 1005 10 16.09344 0 0
10:55 pm 22:55 Partly Cloudy 70 21.3 67 19.5 90 90 SE 14 22 29.68 1005 10 16.09344 0 0
11:15 pm 23:15 Mostly Cloudy 70 21.2 67 19.5 90 90 SSE 16 26 29.68 1005 10 16.09344 0 0
11:35 pm 23:35 Partly Cloudy 70 21.2 67 19.5 90 90 SSE 17 28 29.68 1005 10 16.09344 0 0
11:55 pm 23:55 Partly Cloudy 70 21.2 67 19.5 90 90 SSE 17 28 29.68 1005 10 16.09344 0 0

Powered by AerisWeather